Weather in Porog

Russia / Arkhangel'skaya Oblast'     63°49′56″N   38°28′29″E
temp.,
°C
wind,
m/s
gust,
m/s
humid.,
%
clouds,
%
prec.,
mm/h
press.,
hPa
HPBL,
m
24 may, tue
tue2400:000n51290100 0.1 10081018
03:000n4118797 0.4 1008839
06:00+1n4979100 0.0 1009783
09:00+3n4774100 0.1 1010878
12:00+4nne4575100 0.1 1011958
15:00+3nne3593100 0.4 1013466
18:00+4nne248898 0.1 1014470
21:00+3nnw2492100 0.2 1015286
25 may, wed
wed2500:00+2nnw2498100 0.0 1016300
03:00+2nnw2498100 0.1 1016397
06:00+3nnw2398100 0.3 1016345
09:00+3nnw2397100 0.6 1016363
12:00+4n2391100 0.1 1016569
15:00+5n2277100 0.1 1015873
18:00+5nnw227594 0.0 1015540
21:00+4nw248665 0.0 1014147
26 may, thu
thu2600:00+3n259192 0.0 1013157
03:00+2nnw249189 0.0 1012130
06:00+5nnw248577 0.0 1011260
09:00+9nnw4463100 0.0 1008999
12:00+10nw4561100 0.0 10061093
15:00+9nw4567100 0.0 1004864
18:00+6w4882100 0.3 1001396
21:00+5wnw41082100 0.3 998574
27 may, fri
fri2700:00+4wsw41189100 1.6 995506
03:00+5sw41190100 4.8 993844
06:00+6ssw41091100 2.6 993616
09:00+8s3880100 3.4 993632
12:00+14s5845100 0.1 9932403
15:00+14sse584699 0.1 9951889
18:00+14se475159 0.0 9961647
21:00+10se497575 0.1 997491
28 may, sat
sat2800:00+8e3883100 0.1 997390
03:00+7e389091 0.1 997278
06:00+8e498183 0.0 997389
09:00+8e3991100 0.6 996444
12:00+13ese3664100 0.2 9951491
15:00+11se2582100 1.2 996568
18:00+10sse2482100 0.6 996610
21:00+8n1293100 0.8 99637